EW4107 Weather Reports


time (UTC)temp
C
wind
direction
speed
KPH
gust
KPH
rain 1hr
cm
rain 24hr
cm
rain mn
cm
humidity
%
barometer
mb
20260510104507 11 196 4.8 14.5 0.00 0.64 0.00 1 1010.1
20260510103001 11 195 11.3 20.9 0.00 0.64 0.00 1 1009.7
20260510101600 11 169 6.4 12.9 0.00 0.64 0.00 1 1009.4
20260510100053 11 172 6.4 9.7 0.00 0.64 0.00 1 1009.3
20260510094600 11 148 4.8 12.9 0.00 0.99 0.00 1 1009.0
20260510093056 11 163 6.4 11.3 0.00 0.99 0.00 1 1009.2
20260510091544 11 158 3.2 12.9 0.00 0.99 0.00 1 1008.8
20260510090035 11 148 6.4 14.5 0.00 0.99 0.00 1 1008.7
20260510084531 11 167 6.4 16.1 0.00 1.30 0.00 1 1008.4
20260510083026 11 154 9.7 19.3 0.00 1.30 0.00 1 1008.5
20260510081524 11 109 9.7 22.5 0.00 1.30 0.00 1 1008.6
20260510080022 11 155 4.8 14.5 0.00 1.30 0.00 1 1008.9
20260510074513 11 134 6.4 12.9 0.00 1.37 0.00 1 1009.4
20260510073009 11 144 6.4 11.3 0.00 1.37 0.00 1 1009.7
20260510071507 11 156 8.0 16.1 0.00 1.37 0.00 1 1009.9
20260510070010 11 201 8.0 12.9 0.00 1.37 0.00 1 1009.8
20260510064501 11 193 6.4 14.5 0.00 1.37 0.00 1 1009.3
20260510063057 11 212 9.7 19.3 0.00 1.37 0.00 1 1009.0
20260510061555 11 184 12.9 17.7 0.00 1.37 0.00 1 1008.8
20260510060053 11 164 9.7 17.7 0.00 1.37 0.00 1 1009.0
20260510054548 10 146 4.8 11.3 0.00 1.37 0.00 1 1009.0
20260510053057 10 163 1.6 9.7 0.00 1.37 0.00 1 1009.3
20260510051544 11 168 4.8 14.5 0.00 1.37 0.00 1 1009.4
20260510050034 11 161 11.3 22.5 0.00 1.37 0.00 1 1009.2
20260510044529 11 158 9.7 19.3 0.00 1.37 0.00 1 1008.9
20260510043039 11 158 11.3 16.1 0.00 1.37 0.00 1 1008.8
20260510041526 11 159 12.9 20.9 0.00 1.37 0.00 1 1008.9
20260510040031 11 175 9.7 20.9 0.00 1.37 0.00 1 1009.1
20260510034515 11 183 4.8 9.7 0.00 1.37 1.37 1 1009.2
20260510033016 11 188 9.7 19.3 0.00 1.37 1.37 1 1009.1
20260510031518 11 159 11.3 20.9 0.00 1.37 1.37 1 1009.1
20260510030013 11 169 8.0 16.1 0.00 1.37 1.37 1 1009.0
20260510024515 11 169 8.0 12.9 0.00 1.37 1.37 1 1009.1
20260510023012 11 142 6.4 14.5 0.00 1.37 1.37 1 1009.0
20260510021523 11 173 6.4 14.5 0.00 1.37 1.37 1 1009.1
20260510020011 11 177 8.0 14.5 0.00 1.37 1.37 1 1009.3
20260510014511 11 171 11.3 17.7 0.00 1.37 1.37 1 1009.0
20260510013014 11 115 8.0 20.9 0.00 1.37 1.37 1 1009.0
20260510011507 11 180 11.3 19.3 0.00 1.37 1.37 1 1008.8
20260510010002 11 144 8.0 16.1 0.00 1.37 1.37 1 1008.8
20260510004601 11 132 6.4 12.9 0.00 1.37 1.37 1 1008.9
20260510003055 11 124 4.8 16.1 0.00 1.37 1.37 1 1008.5
20260510001549 11 134 4.8 11.3 0.00 1.37 1.37 1 1008.2
20260510000051 11 157 9.7 16.1 0.00 1.37 1.37 1 1008.2
20260509234543 12 184 9.7 20.9 0.00 1.37 1.37 1 1007.7
20260509233040 12 172 9.7 16.1 0.00 1.37 1.37 1 1007.7
20260509231540 12 113 8.0 16.1 0.00 1.37 1.37 1 1007.6
20260509230034 12 150 12.9 19.3 0.00 1.37 1.37 1 1007.8
20260509224527 12 169 12.9 25.7 0.00 1.37 1.37 1 1007.7
20260509223026 12 152 6.4 16.1 0.00 1.37 1.37 1 1008.1
20260509221522 12 161 11.3 22.5 0.00 1.37 1.37 1 1007.9
20260509220021 12 161 12.9 20.9 0.00 1.37 1.37 1 1007.9
20260509214515 12 183 9.7 20.9 0.00 1.37 1.37 1 1008.1
20260509213023 12 173 9.7 17.7 0.00 1.37 1.37 1 1008.0
20260509211508 12 178 8.0 25.7 0.00 1.37 1.37 1 1008.2
20260509210002 12 206 12.9 22.5 0.00 1.37 1.37 1 1008.4
20260509204558 12 194 9.7 17.7 0.00 1.37 1.37 1 1008.5
20260509203102 12 207 11.3 22.5 0.00 1.37 1.37 1 1008.7
20260509201548 12 221 14.5 25.7 0.03 1.37 1.37 1 1008.7
20260509200045 12 218 16.1 24.1 0.05 1.37 1.37 1 1008.9
20260509194540 12 209 16.1 30.6 0.10 1.37 1.37 1 1009.1
20260509193037 12 205 12.9 25.7 0.13 1.37 1.37 1 1009.4
20260509191545 12 246 12.9 33.8 0.15 1.35 1.35 1 1009.4
20260509190030 12 151 8.0 14.5 0.15 1.32 1.32 1 1009.3
20260509184534 12 182 8.0 12.9 0.10 1.27 1.27 1 1009.4
20260509183029 11 168 8.0 12.9 0.08 1.22 1.22 1 1009.5
20260509181516 12 152 4.8 11.3 0.08 1.19 1.19 1 1009.5
20260509180015 11 128 6.4 16.1 0.08 1.17 1.17 1 1009.4
20260509174510 11 86 6.4 12.9 0.10 1.17 1.17 1 1009.5
20260509173003 11 86 3.2 6.4 0.10 1.14 1.14 1 1009.7
20260509171600 11 86 3.2 6.4 0.08 1.12 1.12 1 1009.8
20260509170100 10 86 4.8 9.7 0.08 1.09 1.09 1 1010.0
20260509164551 10 86 3.2 6.4 0.05 1.07 1.07 1 1010.3
20260509163046 10 86 0.0 3.2 0.05 1.04 1.04 1 1010.4
20260509161541 10 86 1.6 4.8 0.05 1.04 1.04 1 1010.6
20260509160038 10 86 0.0 4.8 0.03 1.02 1.02 1 1010.7
20260509154533 9 86 0.0 3.2 0.05 1.02 1.02 1 1010.8
20260509153042 8 86 1.6 4.8 0.03 0.99 0.99 1 1010.9
20260509151524 8 86 0.0 3.2 0.05 0.99 0.99 1 1011.1
20260509150023 8 86 1.6 4.8 0.05 0.99 0.99 1 1011.3
20260509144529 8 86 0.0 3.2 0.05 0.97 0.97 1 1011.3
20260509143020 8 86 1.6 6.4 0.05 0.97 0.97 1 1011.5
20260509141515 8 86 1.6 4.8 0.03 0.94 0.94 1 1011.3
20260509140013 8 86 1.6 4.8 0.03 0.94 0.94 1 1011.1
20260509134507 8 86 0.0 4.8 0.00 0.91 0.91 1 1010.9
20260509133004 8 86 0.0 3.2 0.00 0.91 0.91 1 1010.9
20260509131600 8 86 1.6 3.2 0.00 0.91 0.91 1 1011.0
20260509130105 7 86 0.0 4.8 0.00 0.91 0.91 1 1011.1
20260509124554 8 86 1.6 9.7 0.00 0.91 0.91 1 1011.3
20260509123044 8 86 0.0 3.2 0.00 0.91 0.91 1 1011.2
20260509121539 7 86 1.6 9.7 0.00 0.91 0.91 1 1011.1
20260509120035 7 86 3.2 9.7 0.00 0.91 0.91 1 1011.2
20260509114531 7 86 3.2 6.4 0.00 0.91 0.91 1 1011.3
20260509113027 7 86 1.6 9.7 0.03 0.91 0.91 1 1011.4
20260509111522 7 104 8.0 14.5 0.08 0.91 0.91 1 1011.3
20260509110017 7 78 8.0 17.7 0.15 0.91 0.91 1 1011.3